Time,TemperatureF,DewpointF,PressureIn,WindDirection,WindDirectionDegrees,WindSpeedMPH,WindSpeedGustMPH,Humidity,HourlyPrecipIn,Conditions,Clouds,dailyrainin,SoftwareType,DateUTC
2013-05-08 00:01:00,50.3,48.9,29.94,SE,129,0.0,0.0,95,0.01,,---,0.00,VWS V14.01,2013-05-08 04:01:00,
2013-05-08 00:06:00,50.3,48.9,29.94,SE,129,0.0,0.0,95,0.00,,---,0.00,VWS V14.01,2013-05-08 04:06:00,
2013-05-08 00:11:00,50.3,48.9,29.94,SE,130,0.0,0.0,95,0.00,,---,0.00,VWS V14.01,2013-05-08 04:11:00,
2013-05-08 00:16:00,50.3,48.9,29.94,SE,129,0.0,0.0,95,0.00,,---,0.00,VWS V14.01,2013-05-08 04:16:00,
2013-05-08 00:21:00,50.3,49.2,29.94,SE,130,0.0,0.0,96,0.00,,---,0.00,VWS V14.01,2013-05-08 04:21:00,
2013-05-08 00:26:00,50.3,49.2,29.94,SE,130,0.0,0.0,96,0.00,,---,0.00,VWS V14.01,2013-05-08 04:26:00,
2013-05-08 00:31:00,50.3,49.2,29.94,SE,129,0.0,0.0,96,0.00,,---,0.00,VWS V14.01,2013-05-08 04:31:00,
2013-05-08 00:36:00,50.3,49.2,29.94,SE,129,0.0,0.0,96,0.00,,---,0.00,VWS V14.01,2013-05-08 04:36:00,
2013-05-08 00:41:00,50.3,49.2,29.94,SE,130,0.0,0.0,96,0.01,,---,0.01,VWS V14.01,2013-05-08 04:41:00,
2013-05-08 00:46:00,50.3,49.2,29.94,SE,129,0.0,0.0,96,0.01,,---,0.01,VWS V14.01,2013-05-08 04:46:00,
2013-05-08 00:51:00,50.3,49.2,29.94,SE,129,0.0,0.0,96,0.01,,---,0.01,VWS V14.01,2013-05-08 04:51:00,
2013-05-08 00:56:00,50.3,49.2,29.94,SE,130,0.0,0.0,96,0.01,,---,0.01,VWS V14.01,2013-05-08 04:56:00,
2013-05-08 01:01:00,50.3,49.2,29.94,SE,129,0.0,0.0,96,0.01,,---,0.01,VWS V14.01,2013-05-08 05:01:00,
2013-05-08 01:06:00,50.2,49.1,29.93,SE,130,0.0,0.0,96,0.01,,---,0.01,VWS V14.01,2013-05-08 05:06:00,
2013-05-08 01:11:00,50.3,49.2,29.93,SE,130,0.0,0.0,96,0.01,,---,0.01,VWS V14.01,2013-05-08 05:11:00,
2013-05-08 01:16:00,50.3,49.2,29.93,SE,130,0.0,0.0,96,0.01,,---,0.01,VWS V14.01,2013-05-08 05:16:00,
2013-05-08 01:21:00,50.4,49.3,29.93,SE,130,0.0,0.0,96,0.01,,---,0.01,VWS V14.01,2013-05-08 05:21:00,
2013-05-08 01:26:00,50.4,49.3,29.93,SE,130,0.0,0.0,96,0.01,,---,0.01,VWS V14.01,2013-05-08 05:26:00,
2013-05-08 01:31:00,50.5,49.4,29.93,SE,130,0.0,0.0,96,0.01,,---,0.01,VWS V14.01,2013-05-08 05:31:00,
2013-05-08 01:36:00,50.5,49.4,29.93,SE,130,0.0,0.0,96,0.01,,---,0.01,VWS V14.01,2013-05-08 05:36:00,
2013-05-08 01:41:00,50.6,49.5,29.93,SE,129,0.0,0.0,96,0.00,,---,0.01,VWS V14.01,2013-05-08 05:41:00,
2013-05-08 01:46:00,50.6,49.5,29.93,SE,129,0.0,0.0,96,0.00,,---,0.01,VWS V14.01,2013-05-08 05:46:00,
2013-05-08 01:51:00,50.6,49.5,29.93,SE,130,0.0,0.0,96,0.00,,---,0.01,VWS V14.01,2013-05-08 05:51:00,
2013-05-08 01:56:00,50.6,49.5,29.92,SE,130,0.0,0.0,96,0.00,,---,0.01,VWS V14.01,2013-05-08 05:56:00,
2013-05-08 02:01:00,50.6,49.5,29.92,SE,130,0.0,0.0,96,0.00,,---,0.01,VWS V14.01,2013-05-08 06:01:00,
2013-05-08 02:06:00,50.6,49.5,29.92,SE,130,0.0,0.0,96,0.00,,---,0.01,VWS V14.01,2013-05-08 06:06:00,
2013-05-08 02:11:00,50.6,49.5,29.92,SSE,163,0.0,0.0,96,0.00,,---,0.01,VWS V14.01,2013-05-08 06:11:00,
2013-05-08 02:16:00,50.6,49.5,29.92,SSE,163,0.0,0.0,96,0.00,,---,0.01,VWS V14.01,2013-05-08 06:16:00,
2013-05-08 02:21:00,50.6,49.5,29.92,SSE,163,0.0,0.0,96,0.00,,---,0.01,VWS V14.01,2013-05-08 06:21:00,
2013-05-08 02:26:00,50.6,49.5,29.92,SSE,163,0.0,0.0,96,0.00,,---,0.01,VWS V14.01,2013-05-08 06:26:00,
2013-05-08 02:31:00,50.7,49.9,29.91,SSE,163,0.0,0.0,97,0.00,,---,0.01,VWS V14.01,2013-05-08 06:31:00,
2013-05-08 02:36:00,50.7,49.9,29.91,SSE,163,0.0,0.0,97,0.00,,---,0.01,VWS V14.01,2013-05-08 06:36:00,
2013-05-08 02:41:00,50.7,49.9,29.91,SSE,163,0.0,0.0,97,0.01,,---,0.02,VWS V14.01,2013-05-08 06:41:00,
2013-05-08 02:46:00,50.7,49.9,29.91,SSE,163,0.0,0.0,97,0.01,,---,0.02,VWS V14.01,2013-05-08 06:46:00,
2013-05-08 02:51:00,50.7,49.9,29.91,East,96,0.0,0.0,97,0.01,,---,0.02,VWS V14.01,2013-05-08 06:51:00,
2013-05-08 02:56:00,50.7,49.9,29.91,SE,124,0.0,1.0,97,0.01,,---,0.02,VWS V14.01,2013-05-08 06:56:00,
2013-05-08 03:01:00,50.7,49.9,29.91,West,266,1.0,1.0,97,0.01,,---,0.02,VWS V14.01,2013-05-08 07:01:00,
2013-05-08 03:06:00,50.8,50.0,29.91,West,266,0.0,0.0,97,0.01,,---,0.02,VWS V14.01,2013-05-08 07:06:00,
2013-05-08 03:11:00,50.8,50.0,29.91,West,266,0.0,0.0,97,0.02,,---,0.03,VWS V14.01,2013-05-08 07:11:00,
2013-05-08 03:16:00,50.7,49.9,29.91,West,266,0.0,1.0,97,0.03,,---,0.04,VWS V14.01,2013-05-08 07:16:00,
2013-05-08 03:21:00,50.7,49.9,29.91,West,266,0.0,0.0,97,0.03,,---,0.04,VWS V14.01,2013-05-08 07:21:00,
2013-05-08 03:26:00,50.7,49.9,29.91,West,266,0.0,0.0,97,0.03,,---,0.04,VWS V14.01,2013-05-08 07:26:00,
2013-05-08 03:31:00,50.7,49.9,29.91,West,266,0.0,0.0,97,0.03,,---,0.04,VWS V14.01,2013-05-08 07:31:00,
2013-05-08 03:36:00,50.6,49.8,29.91,West,266,0.0,0.0,97,0.03,,---,0.04,VWS V14.01,2013-05-08 07:36:00,
2013-05-08 03:41:00,50.6,49.8,29.91,West,266,0.0,0.0,97,0.02,,---,0.04,VWS V14.01,2013-05-08 07:41:00,
2013-05-08 03:46:00,50.6,49.8,29.91,West,266,0.0,0.0,97,0.03,,---,0.05,VWS V14.01,2013-05-08 07:46:00,
2013-05-08 03:51:00,50.5,49.7,29.91,West,266,0.0,0.0,97,0.03,,---,0.05,VWS V14.01,2013-05-08 07:51:00,
2013-05-08 03:56:00,50.5,49.7,29.91,West,266,0.0,0.0,97,0.03,,---,0.05,VWS V14.01,2013-05-08 07:56:00,
2013-05-08 04:02:00,50.4,49.6,29.91,West,266,0.0,0.0,97,0.03,,---,0.05,VWS V14.01,2013-05-08 08:02:00,
2013-05-08 04:07:00,50.4,49.6,29.91,West,266,0.0,0.0,97,0.03,,---,0.05,VWS V14.01,2013-05-08 08:07:00,
2013-05-08 04:12:00,50.4,49.6,29.91,West,266,0.0,0.0,97,0.02,,---,0.05,VWS V14.01,2013-05-08 08:12:00,
2013-05-08 04:17:00,50.4,49.6,29.91,West,266,0.0,0.0,97,0.01,,---,0.05,VWS V14.01,2013-05-08 08:17:00,
2013-05-08 04:22:00,50.3,49.5,29.92,West,266,0.0,0.0,97,0.01,,---,0.05,VWS V14.01,2013-05-08 08:22:00,
2013-05-08 04:27:00,50.3,49.5,29.91,West,266,0.0,0.0,97,0.01,,---,0.05,VWS V14.01,2013-05-08 08:27:00,
2013-05-08 04:32:00,50.4,49.6,29.92,West,266,0.0,0.0,97,0.01,,---,0.05,VWS V14.01,2013-05-08 08:32:00,
2013-05-08 04:37:00,50.4,49.6,29.92,West,266,0.0,0.0,97,0.01,,---,0.05,VWS V14.01,2013-05-08 08:37:00,
2013-05-08 04:42:00,50.4,49.6,29.92,West,266,0.0,0.0,97,0.01,,---,0.05,VWS V14.01,2013-05-08 08:42:00,
2013-05-08 04:47:00,50.4,49.6,29.92,West,266,0.0,0.0,97,0.00,,---,0.05,VWS V14.01,2013-05-08 08:47:00,
2013-05-08 04:52:00,50.4,49.6,29.92,West,266,0.0,0.0,97,0.00,,---,0.05,VWS V14.01,2013-05-08 08:52:00,
2013-05-08 04:57:00,50.5,49.7,29.92,West,266,0.0,0.0,97,0.00,,---,0.05,VWS V14.01,2013-05-08 08:57:00,
2013-05-08 05:02:00,50.5,49.7,29.92,West,266,0.0,0.0,97,0.00,,---,0.05,VWS V14.01,2013-05-08 09:02:00,
2013-05-08 05:07:00,50.5,49.7,29.92,West,266,0.0,0.0,97,0.00,,---,0.05,VWS V14.01,2013-05-08 09:07:00,
2013-05-08 05:12:00,50.5,49.7,29.92,West,262,0.0,0.0,97,0.00,,---,0.05,VWS V14.01,2013-05-08 09:12:00,
2013-05-08 05:17:00,50.5,49.7,29.92,West,260,0.0,0.0,97,0.00,,---,0.05,VWS V14.01,2013-05-08 09:17:00,
2013-05-08 05:22:00,50.5,49.7,29.92,West,260,0.0,0.0,97,0.00,,---,0.05,VWS V14.01,2013-05-08 09:22:00,
2013-05-08 05:27:00,50.5,49.7,29.92,West,260,0.0,0.0,97,0.00,,---,0.05,VWS V14.01,2013-05-08 09:27:00,
2013-05-08 05:32:00,50.4,49.6,29.92,West,259,0.0,0.0,97,0.00,,---,0.05,VWS V14.01,2013-05-08 09:32:00,
2013-05-08 05:37:00,50.3,49.5,29.92,NNE,27,2.0,2.0,97,0.00,,---,0.05,VWS V14.01,2013-05-08 09:37:00,
2013-05-08 05:42:00,50.2,49.4,29.92,NW,305,0.0,0.0,97,0.00,,---,0.05,VWS V14.01,2013-05-08 09:42:00,
2013-05-08 05:47:00,50.2,49.4,29.92,ENE,68,0.0,0.0,97,0.00,,---,0.05,VWS V14.01,2013-05-08 09:47:00,
2013-05-08 05:52:00,50.2,49.4,29.92,ENE,68,0.0,1.0,97,0.00,,---,0.05,VWS V14.01,2013-05-08 09:52:00,
2013-05-08 05:57:00,50.3,49.8,29.92,SSE,156,0.0,0.0,98,0.00,,---,0.05,VWS V14.01,2013-05-08 09:57:00,
2013-05-08 06:02:00,50.3,49.8,29.92,SE,128,0.0,0.0,98,0.00,,---,0.05,VWS V14.01,2013-05-08 10:02:00,
2013-05-08 06:07:00,50.4,49.9,29.92,SE,136,0.0,1.0,98,0.00,,---,0.05,VWS V14.01,2013-05-08 10:07:00,
2013-05-08 06:12:00,50.5,50.0,29.92,East,84,0.0,0.0,98,0.00,,---,0.05,VWS V14.01,2013-05-08 10:12:00,
2013-05-08 06:17:00,50.6,50.1,29.92,East,84,1.0,1.0,98,0.00,,---,0.05,VWS V14.01,2013-05-08 10:17:00,
2013-05-08 06:22:00,50.6,49.8,29.92,East,83,0.0,0.0,97,0.00,,---,0.05,VWS V14.01,2013-05-08 10:22:00,
2013-05-08 06:27:00,50.6,49.8,29.92,NW,322,0.0,0.0,97,0.00,,---,0.05,VWS V14.01,2013-05-08 10:27:00,
2013-05-08 06:32:00,50.6,49.8,29.92,NW,323,0.0,0.0,97,0.00,,---,0.05,VWS V14.01,2013-05-08 10:32:00,
2013-05-08 06:37:00,50.7,49.9,29.92,NW,322,0.0,0.0,97,0.00,,---,0.05,VWS V14.01,2013-05-08 10:37:00,
2013-05-08 06:42:00,50.8,50.3,29.92,NW,323,0.0,0.0,98,0.00,,---,0.05,VWS V14.01,2013-05-08 10:42:00,
2013-05-08 06:47:00,50.8,50.3,29.93,NW,325,0.0,0.0,98,0.00,,---,0.05,VWS V14.01,2013-05-08 10:47:00,
2013-05-08 06:52:00,50.9,50.4,29.93,NW,325,0.0,0.0,98,0.00,,---,0.05,VWS V14.01,2013-05-08 10:52:00,
2013-05-08 06:57:00,51.0,50.5,29.93,North,355,0.0,1.0,98,0.00,,---,0.05,VWS V14.01,2013-05-08 10:57:00,
2013-05-08 07:02:00,51.0,50.5,29.93,North,355,0.0,0.0,98,0.00,,---,0.05,VWS V14.01,2013-05-08 11:02:00,
2013-05-08 07:07:00,51.0,50.5,29.93,North,355,0.0,0.0,98,0.00,,---,0.05,VWS V14.01,2013-05-08 11:07:00,
2013-05-08 07:12:00,51.1,50.6,29.93,North,355,0.0,0.0,98,0.00,,---,0.05,VWS V14.01,2013-05-08 11:12:00,
2013-05-08 07:17:00,51.2,50.7,29.94,North,356,0.0,0.0,98,0.00,,---,0.05,VWS V14.01,2013-05-08 11:17:00,
2013-05-08 07:22:00,51.3,50.8,29.94,North,355,0.0,0.0,98,0.00,,---,0.05,VWS V14.01,2013-05-08 11:22:00,
2013-05-08 07:27:00,51.3,50.8,29.94,West,260,1.0,1.0,98,0.00,,---,0.05,VWS V14.01,2013-05-08 11:27:00,
2013-05-08 07:32:00,51.2,50.7,29.94,West,273,0.0,0.0,98,0.00,,---,0.05,VWS V14.01,2013-05-08 11:32:00,
2013-05-08 07:37:00,51.2,50.7,29.95,West,273,0.0,0.0,98,0.00,,---,0.05,VWS V14.01,2013-05-08 11:37:00,
2013-05-08 07:42:00,51.2,50.7,29.95,West,273,0.0,0.0,98,0.00,,---,0.05,VWS V14.01,2013-05-08 11:42:00,
2013-05-08 07:47:00,51.2,50.7,29.95,West,273,0.0,0.0,98,0.00,,---,0.05,VWS V14.01,2013-05-08 11:47:00,
2013-05-08 07:52:00,51.3,50.8,29.95,West,273,0.0,0.0,98,0.00,,---,0.05,VWS V14.01,2013-05-08 11:52:00,
2013-05-08 07:57:00,51.3,50.8,29.96,West,273,0.0,0.0,98,0.00,,---,0.05,VWS V14.01,2013-05-08 11:57:00,
2013-05-08 08:02:00,51.3,50.8,29.96,West,273,0.0,0.0,98,0.00,,---,0.05,VWS V14.01,2013-05-08 12:02:00,
2013-05-08 08:07:00,51.3,50.8,29.96,West,273,0.0,0.0,98,0.00,,---,0.05,VWS V14.01,2013-05-08 12:07:00,
2013-05-08 08:12:00,51.4,50.9,29.96,West,273,0.0,0.0,98,0.00,,---,0.05,VWS V14.01,2013-05-08 12:12:00,
2013-05-08 08:17:00,51.4,50.9,29.96,West,273,0.0,0.0,98,0.00,,---,0.05,VWS V14.01,2013-05-08 12:17:00,
2013-05-08 08:22:00,51.4,50.9,29.96,West,273,0.0,0.0,98,0.00,,---,0.05,VWS V14.01,2013-05-08 12:22:00,
2013-05-08 08:27:00,51.5,51.0,29.96,West,273,0.0,0.0,98,0.00,,---,0.05,VWS V14.01,2013-05-08 12:27:00,
2013-05-08 08:32:00,51.7,51.2,29.96,West,273,0.0,0.0,98,0.00,,---,0.05,VWS V14.01,2013-05-08 12:32:00,
2013-05-08 08:37:00,51.8,51.3,29.96,West,273,0.0,0.0,98,0.00,,---,0.05,VWS V14.01,2013-05-08 12:37:00,
2013-05-08 08:42:00,51.9,51.4,29.97,West,273,0.0,0.0,98,0.00,,---,0.05,VWS V14.01,2013-05-08 12:42:00,
2013-05-08 08:47:00,52.0,51.5,29.97,West,273,0.0,0.0,98,0.00,,---,0.05,VWS V14.01,2013-05-08 12:47:00,
2013-05-08 08:52:00,52.2,51.7,29.97,West,273,0.0,0.0,98,0.00,,---,0.05,VWS V14.01,2013-05-08 12:52:00,
2013-05-08 08:57:00,52.3,51.8,29.97,West,273,0.0,0.0,98,0.00,,---,0.05,VWS V14.01,2013-05-08 12:57:00,
2013-05-08 09:02:00,52.5,52.0,29.97,West,273,0.0,0.0,98,0.00,,---,0.05,VWS V14.01,2013-05-08 13:02:00,
2013-05-08 09:07:00,52.5,52.0,29.97,West,273,0.0,0.0,98,0.00,,---,0.05,VWS V14.01,2013-05-08 13:07:00,
2013-05-08 09:12:00,52.6,52.0,29.97,West,273,0.0,0.0,98,0.00,,---,0.05,VWS V14.01,2013-05-08 13:12:00,
2013-05-08 09:17:00,52.5,52.0,29.97,West,273,0.0,0.0,98,0.00,,---,0.05,VWS V14.01,2013-05-08 13:17:00,
2013-05-08 09:22:00,52.4,51.6,29.97,West,273,0.0,0.0,97,0.00,,---,0.05,VWS V14.01,2013-05-08 13:22:00,
2013-05-08 09:27:00,52.4,51.6,29.97,South,170,0.0,0.0,97,0.00,,---,0.05,VWS V14.01,2013-05-08 13:27:00,
2013-05-08 09:32:00,52.4,51.6,29.98,South,172,0.0,0.0,97,0.00,,---,0.05,VWS V14.01,2013-05-08 13:32:00,
2013-05-08 09:37:00,52.5,51.7,29.97,South,172,0.0,0.0,97,0.00,,---,0.05,VWS V14.01,2013-05-08 13:37:00,
2013-05-08 09:42:00,52.7,51.9,29.98,South,172,0.0,0.0,97,0.00,,---,0.05,VWS V14.01,2013-05-08 13:42:00,
2013-05-08 09:47:00,52.8,52.0,29.98,South,172,0.0,0.0,97,0.00,,---,0.05,VWS V14.01,2013-05-08 13:47:00,
2013-05-08 09:52:00,52.9,52.1,29.98,South,172,0.0,0.0,97,0.00,,---,0.05,VWS V14.01,2013-05-08 13:52:00,
2013-05-08 09:57:00,52.9,51.8,29.98,South,172,0.0,0.0,96,0.00,,---,0.05,VWS V14.01,2013-05-08 13:57:00,
2013-05-08 10:02:00,52.9,51.8,29.98,South,172,0.0,0.0,96,0.01,,---,0.06,VWS V14.01,2013-05-08 14:02:00,
2013-05-08 10:07:00,52.8,51.7,29.98,South,172,0.0,0.0,96,0.01,,---,0.06,VWS V14.01,2013-05-08 14:07:00,
2013-05-08 10:12:00,52.8,51.7,29.98,SSW,195,0.0,0.0,96,0.01,,---,0.06,VWS V14.01,2013-05-08 14:12:00,
2013-05-08 10:17:00,53.0,52.2,29.98,South,177,0.0,1.0,97,0.01,,---,0.06,VWS V14.01,2013-05-08 14:17:00,
2013-05-08 10:22:00,53.1,52.3,29.98,South,179,1.0,1.0,97,0.01,,---,0.06,VWS V14.01,2013-05-08 14:22:00,
2013-05-08 10:27:00,53.2,52.1,29.98,SE,129,0.0,0.0,96,0.01,,---,0.06,VWS V14.01,2013-05-08 14:27:00,
2013-05-08 10:32:00,53.5,52.4,29.98,SSW,204,1.0,1.0,96,0.01,,---,0.06,VWS V14.01,2013-05-08 14:32:00,
2013-05-08 10:37:00,53.9,52.5,29.98,South,191,0.0,0.0,95,0.01,,---,0.06,VWS V14.01,2013-05-08 14:37:00,
2013-05-08 10:42:00,54.5,53.4,29.98,SW,235,0.0,2.0,96,0.01,,---,0.06,VWS V14.01,2013-05-08 14:42:00,
2013-05-08 10:47:00,54.8,52.8,29.98,SW,228,0.0,0.0,93,0.01,,---,0.06,VWS V14.01,2013-05-08 14:47:00,
2013-05-08 10:52:00,55.0,52.7,29.98,NNE,33,0.0,1.0,92,0.01,,---,0.06,VWS V14.01,2013-05-08 14:52:00,
2013-05-08 10:57:00,55.1,52.5,29.98,North,4,1.0,3.0,91,0.01,,---,0.06,VWS V14.01,2013-05-08 14:57:00,
2013-05-08 11:02:00,55.2,53.2,29.98,NNE,20,1.0,2.0,93,0.00,,---,0.06,VWS V14.01,2013-05-08 15:02:00,
2013-05-08 11:07:00,55.2,52.6,29.98,South,179,4.0,4.0,91,0.00,,---,0.06,VWS V14.01,2013-05-08 15:07:00,
2013-05-08 11:12:00,55.2,52.6,29.98,SE,146,3.0,4.0,91,0.00,,---,0.06,VWS V14.01,2013-05-08 15:12:00,
2013-05-08 11:17:00,55.3,52.1,29.98,SSE,154,1.0,1.0,89,0.00,,---,0.06,VWS V14.01,2013-05-08 15:17:00,
2013-05-08 11:22:00,55.3,52.4,29.98,SE,132,2.0,3.0,90,0.00,,---,0.06,VWS V14.01,2013-05-08 15:22:00,
2013-05-08 11:27:00,55.3,52.4,29.99,SSW,199,2.0,2.0,90,0.00,,---,0.06,VWS V14.01,2013-05-08 15:27:00,
2013-05-08 11:32:00,55.6,53.0,29.98,ESE,118,1.0,2.0,91,0.00,,---,0.06,VWS V14.01,2013-05-08 15:32:00,
2013-05-08 11:37:00,56.0,53.4,29.98,NW,309,0.0,1.0,91,0.00,,---,0.06,VWS V14.01,2013-05-08 15:37:00,
2013-05-08 11:42:00,56.4,53.5,29.98,West,259,0.0,0.0,90,0.00,,---,0.06,VWS V14.01,2013-05-08 15:42:00,
2013-05-08 11:47:00,56.8,53.3,29.98,West,264,1.0,1.0,88,0.00,,---,0.06,VWS V14.01,2013-05-08 15:47:00,
2013-05-08 11:52:00,56.8,53.0,29.98,SE,146,1.0,1.0,87,0.00,,---,0.06,VWS V14.01,2013-05-08 15:52:00,
2013-05-08 11:57:00,56.6,53.1,29.98,West,281,0.0,1.0,88,0.00,,---,0.06,VWS V14.01,2013-05-08 15:57:00,
2013-05-08 12:02:00,56.6,52.8,29.99,SSE,149,1.0,3.0,87,0.00,,---,0.06,VWS V14.01,2013-05-08 16:02:00,
2013-05-08 12:07:00,56.5,52.7,29.98,SSW,204,0.0,1.0,87,0.00,,---,0.06,VWS V14.01,2013-05-08 16:07:00,
2013-05-08 12:12:00,56.5,53.0,29.98,SSW,200,0.0,0.0,88,0.00,,---,0.06,VWS V14.01,2013-05-08 16:12:00,
2013-05-08 12:17:00,56.8,54.2,29.98,SW,236,2.0,2.0,91,0.00,,---,0.06,VWS V14.01,2013-05-08 16:17:00,
2013-05-08 12:22:00,57.1,54.2,29.98,SW,236,0.0,0.0,90,0.00,,---,0.06,VWS V14.01,2013-05-08 16:22:00,
2013-05-08 12:27:00,57.3,54.1,29.98,ENE,68,3.0,3.0,89,0.00,,---,0.06,VWS V14.01,2013-05-08 16:27:00,
2013-05-08 12:32:00,57.1,53.3,29.98,SSE,160,2.0,2.0,87,0.00,,---,0.06,VWS V14.01,2013-05-08 16:32:00,
2013-05-08 12:37:00,57.0,52.9,29.98,ENE,70,0.0,1.0,86,0.00,,---,0.06,VWS V14.01,2013-05-08 16:37:00,
2013-05-08 12:42:00,57.0,53.2,29.98,SSW,207,0.0,2.0,87,0.00,,---,0.06,VWS V14.01,2013-05-08 16:42:00,
2013-05-08 12:47:00,57.0,52.9,29.98,SSE,156,1.0,2.0,86,0.00,,---,0.06,VWS V14.01,2013-05-08 16:47:00,
2013-05-08 12:52:00,57.1,53.6,29.98,SSE,163,2.0,2.0,88,0.00,,---,0.06,VWS V14.01,2013-05-08 16:52:00,
2013-05-08 12:57:00,57.4,54.2,29.98,East,96,0.0,1.0,89,0.00,,---,0.06,VWS V14.01,2013-05-08 16:57:00,
2013-05-08 13:02:00,57.4,53.2,29.98,North,9,1.0,2.0,86,0.00,,---,0.06,VWS V14.01,2013-05-08 17:02:00,
2013-05-08 13:07:00,57.5,53.0,29.98,SW,235,0.0,0.0,85,0.00,,---,0.06,VWS V14.01,2013-05-08 17:07:00,
2013-05-08 13:12:00,57.5,53.3,29.98,ESE,113,1.0,2.0,86,0.00,,---,0.06,VWS V14.01,2013-05-08 17:12:00,
2013-05-08 13:17:00,57.6,53.5,29.98,SE,140,2.0,2.0,86,0.00,,---,0.06,VWS V14.01,2013-05-08 17:17:00,
2013-05-08 13:22:00,58.2,54.0,29.98,SW,228,1.0,2.0,86,0.00,,---,0.06,VWS V14.01,2013-05-08 17:22:00,
2013-05-08 13:27:00,58.6,53.8,29.97,SSE,166,1.0,2.0,84,0.00,,---,0.06,VWS V14.01,2013-05-08 17:27:00,
2013-05-08 13:32:00,58.6,54.1,29.98,East,99,0.0,1.0,85,0.00,,---,0.06,VWS V14.01,2013-05-08 17:32:00,
2013-05-08 13:37:00,59.1,54.6,29.97,NNE,18,2.0,2.0,85,0.00,,---,0.06,VWS V14.01,2013-05-08 17:37:00,
2013-05-08 13:42:00,59.8,54.3,29.97,SE,124,0.0,0.0,82,0.00,,---,0.06,VWS V14.01,2013-05-08 17:42:00,
2013-05-08 13:47:00,60.4,54.2,29.97,SW,228,2.0,2.0,80,0.00,,---,0.06,VWS V14.01,2013-05-08 17:47:00,
2013-05-08 13:52:00,60.4,54.9,29.98,East,91,1.0,1.0,82,0.00,,---,0.06,VWS V14.01,2013-05-08 17:52:00,
2013-05-08 13:57:00,60.3,53.8,29.97,SE,134,1.0,1.0,79,0.00,,---,0.06,VWS V14.01,2013-05-08 17:57:00,
2013-05-08 14:02:00,60.6,54.8,29.97,WNW,295,0.0,0.0,81,0.00,,---,0.06,VWS V14.01,2013-05-08 18:02:00,
2013-05-08 14:07:00,61.2,53.9,29.97,South,169,2.0,3.0,77,0.00,,---,0.06,VWS V14.01,2013-05-08 18:07:00,
2013-05-08 14:12:00,60.9,53.7,29.97,ESE,102,1.0,1.0,77,0.00,,---,0.06,VWS V14.01,2013-05-08 18:12:00,
2013-05-08 14:17:00,60.2,53.0,29.97,East,95,1.0,1.0,77,0.00,,---,0.06,VWS V14.01,2013-05-08 18:17:00,
2013-05-08 14:22:00,59.8,53.3,29.97,ENE,78,3.0,4.0,79,0.00,,---,0.06,VWS V14.01,2013-05-08 18:22:00,
2013-05-08 14:27:00,59.6,53.4,29.97,ENE,77,1.0,1.0,80,0.00,,---,0.06,VWS V14.01,2013-05-08 18:27:00,
2013-05-08 14:32:00,60.3,54.1,29.97,South,179,1.0,2.0,80,0.00,,---,0.06,VWS V14.01,2013-05-08 18:32:00,
2013-05-08 14:37:00,60.9,54.0,29.97,SSE,167,1.0,1.0,78,0.00,,---,0.06,VWS V14.01,2013-05-08 18:37:00,
2013-05-08 14:42:00,61.0,53.0,29.97,WSW,255,1.0,1.0,75,0.00,,---,0.06,VWS V14.01,2013-05-08 18:42:00,
2013-05-08 14:47:00,61.0,53.8,29.97,South,176,3.0,3.0,77,0.00,,---,0.06,VWS V14.01,2013-05-08 18:47:00,
2013-05-08 14:52:00,61.4,54.8,29.97,South,173,1.0,2.0,79,0.00,,---,0.06,VWS V14.01,2013-05-08 18:52:00,
2013-05-08 14:57:00,62.0,54.0,29.97,SSE,153,2.0,2.0,75,0.00,,---,0.06,VWS V14.01,2013-05-08 18:57:00,
2013-05-08 15:02:00,62.1,53.0,29.97,ESE,116,0.0,2.0,72,0.00,,---,0.06,VWS V14.01,2013-05-08 19:02:00,
2013-05-08 15:07:00,61.9,53.2,29.97,SSW,201,1.0,2.0,73,0.00,,---,0.06,VWS V14.01,2013-05-08 19:07:00,
2013-05-08 15:12:00,61.7,53.0,29.97,SE,145,0.0,1.0,73,0.00,,---,0.06,VWS V14.01,2013-05-08 19:12:00,
2013-05-08 15:17:00,61.5,53.2,29.97,NE,36,0.0,1.0,74,0.00,,---,0.06,VWS V14.01,2013-05-08 19:17:00,
2013-05-08 15:22:00,61.2,53.9,29.97,NE,34,1.0,1.0,77,0.00,,---,0.06,VWS V14.01,2013-05-08 19:22:00,
2013-05-08 15:27:00,60.8,52.8,29.97,SSE,160,1.0,2.0,75,0.00,,---,0.06,VWS V14.01,2013-05-08 19:27:00,
2013-05-08 15:32:00,60.8,54.3,29.97,SE,137,0.0,0.0,79,0.00,,---,0.06,VWS V14.01,2013-05-08 19:32:00,
2013-05-08 15:37:00,61.1,54.2,29.97,South,186,0.0,1.0,78,0.00,,---,0.06,VWS V14.01,2013-05-08 19:37:00,
2013-05-08 15:42:00,61.4,53.8,29.97,NW,320,0.0,0.0,76,0.00,,---,0.06,VWS V14.01,2013-05-08 19:42:00,
2013-05-08 15:47:00,61.7,54.1,29.96,South,176,0.0,0.0,76,0.00,,---,0.06,VWS V14.01,2013-05-08 19:47:00,
2013-05-08 15:52:00,61.8,53.8,29.97,East,95,1.0,3.0,75,0.00,,---,0.06,VWS V14.01,2013-05-08 19:52:00,
2013-05-08 15:57:00,61.3,53.0,29.96,East,88,0.0,1.0,74,0.00,,---,0.06,VWS V14.01,2013-05-08 19:57:00,
2013-05-08 16:02:00,61.2,53.2,29.97,SE,128,0.0,1.0,75,0.00,,---,0.06,VWS V14.01,2013-05-08 20:02:00,
2013-05-08 16:07:00,61.0,54.8,29.97,SE,128,0.0,0.0,80,0.00,,---,0.06,VWS V14.01,2013-05-08 20:07:00,
2013-05-08 16:12:00,60.6,53.7,29.96,SSE,149,1.0,3.0,78,0.00,,---,0.06,VWS V14.01,2013-05-08 20:12:00,
2013-05-08 16:17:00,60.6,53.4,29.96,East,88,2.0,2.0,77,0.00,,---,0.06,VWS V14.01,2013-05-08 20:17:00,
2013-05-08 16:22:00,60.7,53.5,29.96,East,92,0.0,1.0,77,0.00,,---,0.06,VWS V14.01,2013-05-08 20:22:00,
2013-05-08 16:27:00,60.7,54.5,29.97,East,92,0.0,1.0,80,0.00,,---,0.06,VWS V14.01,2013-05-08 20:27:00,
2013-05-08 16:32:00,60.6,53.4,29.97,SSE,154,1.0,1.0,77,0.00,,---,0.06,VWS V14.01,2013-05-08 20:32:00,
2013-05-08 16:37:00,60.6,53.4,29.97,SE,135,1.0,1.0,77,0.00,,---,0.06,VWS V14.01,2013-05-08 20:37:00,
2013-05-08 16:42:00,60.6,52.6,29.97,ENE,58,2.0,2.0,75,0.00,,---,0.06,VWS V14.01,2013-05-08 20:42:00,
2013-05-08 16:47:00,60.8,53.9,29.97,East,93,1.0,1.0,78,0.00,,---,0.06,VWS V14.01,2013-05-08 20:47:00,
2013-05-08 16:52:00,60.8,52.1,29.97,ESE,123,1.0,2.0,73,0.00,,---,0.06,VWS V14.01,2013-05-08 20:52:00,
2013-05-08 16:57:00,61.0,53.4,29.97,SE,140,1.0,1.0,76,0.00,,---,0.06,VWS V14.01,2013-05-08 20:57:00,
2013-05-08 17:02:00,61.3,54.4,29.97,SW,228,1.0,1.0,78,0.00,,---,0.06,VWS V14.01,2013-05-08 21:02:00,
2013-05-08 17:07:00,61.7,53.0,29.97,WSW,252,1.0,1.0,73,0.00,,---,0.06,VWS V14.01,2013-05-08 21:07:00,
2013-05-08 17:12:00,61.7,53.7,29.96,SSW,211,2.0,2.0,75,0.00,,---,0.06,VWS V14.01,2013-05-08 21:12:00,
2013-05-08 17:17:00,61.6,53.6,29.97,South,176,2.0,2.0,75,0.00,,---,0.06,VWS V14.01,2013-05-08 21:17:00,
2013-05-08 17:22:00,61.4,53.8,29.96,SE,138,0.0,0.0,76,0.00,,---,0.06,VWS V14.01,2013-05-08 21:22:00,
2013-05-08 17:27:00,61.2,52.9,29.97,SSE,166,0.0,2.0,74,0.00,,---,0.06,VWS V14.01,2013-05-08 21:27:00,
2013-05-08 17:32:00,61.0,54.5,29.97,ENE,70,1.0,1.0,79,0.01,,---,0.07,VWS V14.01,2013-05-08 21:32:00,
2013-05-08 17:37:00,60.6,55.1,29.97,ENE,67,1.0,3.0,82,0.01,,---,0.07,VWS V14.01,2013-05-08 21:37:00,
2013-05-08 17:42:00,60.0,53.5,29.97,SW,222,2.0,2.0,79,0.01,,---,0.07,VWS V14.01,2013-05-08 21:42:00,
2013-05-08 17:47:00,59.9,54.1,29.97,SW,232,3.0,4.0,81,0.01,,---,0.07,VWS V14.01,2013-05-08 21:47:00,
2013-05-08 17:52:00,59.8,52.9,29.97,NNE,23,0.0,2.0,78,0.01,,---,0.07,VWS V14.01,2013-05-08 21:52:00,
2013-05-08 17:57:00,59.9,54.1,29.97,ENE,68,0.0,1.0,81,0.01,,---,0.07,VWS V14.01,2013-05-08 21:57:00,
2013-05-08 18:02:00,60.5,54.0,29.97,SSE,156,0.0,2.0,79,0.01,,---,0.07,VWS V14.01,2013-05-08 22:02:00,
2013-05-08 18:07:00,60.7,53.8,29.97,SSE,158,1.0,1.0,78,0.01,,---,0.07,VWS V14.01,2013-05-08 22:07:00,
2013-05-08 18:12:00,60.7,54.2,29.97,SE,142,0.0,0.0,79,0.01,,---,0.07,VWS V14.01,2013-05-08 22:12:00,
2013-05-08 18:17:00,60.4,54.2,29.97,SE,143,0.0,0.0,80,0.01,,---,0.07,VWS V14.01,2013-05-08 22:17:00,
2013-05-08 18:22:00,60.0,54.5,29.97,SE,142,0.0,1.0,82,0.01,,---,0.07,VWS V14.01,2013-05-08 22:22:00,
2013-05-08 18:27:00,59.7,54.5,29.97,SE,142,0.0,0.0,83,0.01,,---,0.07,VWS V14.01,2013-05-08 22:27:00,
2013-05-08 18:32:00,59.4,54.2,29.97,SE,142,1.0,1.0,83,0.00,,---,0.07,VWS V14.01,2013-05-08 22:32:00,
2013-05-08 18:37:00,59.2,54.4,29.97,SE,140,1.0,2.0,84,0.00,,---,0.07,VWS V14.01,2013-05-08 22:37:00,
2013-05-08 18:42:00,58.9,53.8,29.97,SE,132,0.0,0.0,83,0.00,,---,0.07,VWS V14.01,2013-05-08 22:42:00,
2013-05-08 18:47:00,58.9,54.1,29.98,SE,133,0.0,1.0,84,0.00,,---,0.07,VWS V14.01,2013-05-08 22:47:00,
2013-05-08 18:52:00,58.8,55.0,29.98,SE,133,1.0,1.0,87,0.00,,---,0.07,VWS V14.01,2013-05-08 22:52:00,
2013-05-08 18:57:00,58.5,54.3,29.98,SE,132,0.0,0.0,86,0.00,,---,0.07,VWS V14.01,2013-05-08 22:57:00,
2013-05-08 19:02:00,58.3,53.8,29.98,SE,132,1.0,2.0,85,0.00,,---,0.07,VWS V14.01,2013-05-08 23:02:00,
2013-05-08 19:07:00,58.4,54.5,29.99,SW,224,0.0,1.0,87,0.00,,---,0.07,VWS V14.01,2013-05-08 23:07:00,
2013-05-08 19:12:00,58.2,54.4,29.99,SE,129,0.0,1.0,87,0.00,,---,0.07,VWS V14.01,2013-05-08 23:12:00,
2013-05-08 19:17:00,57.9,54.1,29.99,SE,124,0.0,0.0,87,0.00,,---,0.07,VWS V14.01,2013-05-08 23:17:00,
2013-05-08 19:22:00,57.8,54.3,29.99,SE,127,0.0,0.0,88,0.00,,---,0.07,VWS V14.01,2013-05-08 23:22:00,
2013-05-08 19:27:00,57.6,53.8,29.99,SE,130,0.0,0.0,87,0.00,,---,0.07,VWS V14.01,2013-05-08 23:27:00,
2013-05-08 19:32:00,57.5,53.7,29.99,SE,132,1.0,1.0,87,0.00,,---,0.07,VWS V14.01,2013-05-08 23:32:00,
2013-05-08 19:37:00,57.5,53.7,29.99,ESE,123,1.0,1.0,87,0.00,,---,0.07,VWS V14.01,2013-05-08 23:37:00,
2013-05-08 19:42:00,57.5,53.7,29.99,North,1,0.0,0.0,87,0.00,,---,0.07,VWS V14.01,2013-05-08 23:42:00,
2013-05-08 19:47:00,57.6,53.8,29.99,North,1,0.0,1.0,87,0.00,,---,0.07,VWS V14.01,2013-05-08 23:47:00,
2013-05-08 19:52:00,57.6,54.4,30.00,North,6,0.0,1.0,89,0.00,,---,0.07,VWS V14.01,2013-05-08 23:52:00,
2013-05-08 19:57:00,57.5,54.3,30.00,North,6,0.0,0.0,89,0.00,,---,0.07,VWS V14.01,2013-05-08 23:57:00,
2013-05-08 20:02:00,57.4,54.2,30.00,North,5,0.0,0.0,89,0.00,,---,0.07,VWS V14.01,2013-05-09 00:02:00,
2013-05-08 20:07:00,57.2,54.0,30.01,North,5,0.0,0.0,89,0.00,,---,0.07,VWS V14.01,2013-05-09 00:07:00,
2013-05-08 20:12:00,57.0,54.1,30.01,North,5,0.0,0.0,90,0.00,,---,0.07,VWS V14.01,2013-05-09 00:12:00,
2013-05-08 20:17:00,56.8,54.2,30.01,East,79,0.0,0.0,91,0.00,,---,0.07,VWS V14.01,2013-05-09 00:17:00,
2013-05-08 20:22:00,56.7,54.1,30.01,ENE,78,0.0,0.0,91,0.00,,---,0.07,VWS V14.01,2013-05-09 00:22:00,
2013-05-08 20:27:00,56.5,53.9,30.01,ENE,78,0.0,0.0,91,0.00,,---,0.07,VWS V14.01,2013-05-09 00:27:00,
2013-05-08 20:32:00,56.5,53.9,30.01,ENE,78,0.0,0.0,91,0.00,,---,0.07,VWS V14.01,2013-05-09 00:32:00,
2013-05-08 20:37:00,56.4,54.1,30.01,SSE,154,0.0,1.0,92,0.00,,---,0.07,VWS V14.01,2013-05-09 00:37:00,
2013-05-08 20:42:00,56.6,54.3,30.01,SW,224,0.0,0.0,92,0.00,,---,0.07,VWS V14.01,2013-05-09 00:42:00,
2013-05-08 20:47:00,56.5,54.2,30.01,SW,222,0.0,0.0,92,0.00,,---,0.07,VWS V14.01,2013-05-09 00:47:00,
2013-05-08 20:52:00,56.4,54.1,30.01,SW,224,0.0,0.0,92,0.00,,---,0.07,VWS V14.01,2013-05-09 00:52:00,
2013-05-08 20:57:00,56.3,54.0,30.01,SW,224,0.0,0.0,92,0.00,,---,0.07,VWS V14.01,2013-05-09 00:57:00,
2013-05-08 21:02:00,56.2,53.9,30.01,SW,222,0.0,0.0,92,0.00,,---,0.07,VWS V14.01,2013-05-09 01:02:00,
2013-05-08 21:07:00,56.1,53.8,30.02,SW,224,0.0,0.0,92,0.00,,---,0.07,VWS V14.01,2013-05-09 01:07:00,
2013-05-08 21:12:00,56.1,54.1,30.01,SW,224,0.0,0.0,93,0.00,,---,0.07,VWS V14.01,2013-05-09 01:12:00,
2013-05-08 21:17:00,56.1,54.1,30.02,SW,224,0.0,0.0,93,0.00,,---,0.07,VWS V14.01,2013-05-09 01:17:00,
2013-05-08 21:22:00,55.9,53.9,30.02,SW,224,0.0,0.0,93,0.00,,---,0.07,VWS V14.01,2013-05-09 01:22:00,
2013-05-08 21:27:00,55.9,53.9,30.02,South,170,0.0,0.0,93,0.00,,---,0.07,VWS V14.01,2013-05-09 01:27:00,
2013-05-08 21:32:00,55.9,54.2,30.03,SW,226,0.0,0.0,94,0.00,,---,0.07,VWS V14.01,2013-05-09 01:32:00,
2013-05-08 21:37:00,55.9,54.2,30.03,SSE,156,2.0,2.0,94,0.00,,---,0.07,VWS V14.01,2013-05-09 01:37:00,
2013-05-08 21:42:00,56.1,53.8,30.02,WNW,298,1.0,1.0,92,0.00,,---,0.07,VWS V14.01,2013-05-09 01:42:00,
2013-05-08 21:47:00,56.2,54.2,30.03,East,100,1.0,2.0,93,0.00,,---,0.07,VWS V14.01,2013-05-09 01:47:00,
2013-05-08 21:52:00,56.2,53.9,30.03,East,101,0.0,0.0,92,0.00,,---,0.07,VWS V14.01,2013-05-09 01:52:00,
2013-05-08 21:57:00,56.1,53.8,30.03,East,100,0.0,0.0,92,0.00,,---,0.07,VWS V14.01,2013-05-09 01:57:00,
2013-05-08 22:02:00,55.8,53.5,30.03,East,101,0.0,0.0,92,0.00,,---,0.07,VWS V14.01,2013-05-09 02:02:00,
2013-05-08 22:07:00,55.7,53.7,30.03,East,100,0.0,0.0,93,0.00,,---,0.07,VWS V14.01,2013-05-09 02:07:00,
2013-05-08 22:12:00,55.5,53.5,30.03,East,101,0.0,0.0,93,0.00,,---,0.07,VWS V14.01,2013-05-09 02:12:00,
2013-05-08 22:17:00,55.3,53.3,30.03,ESE,102,0.0,0.0,93,0.00,,---,0.07,VWS V14.01,2013-05-09 02:17:00,
2013-05-08 22:22:00,55.0,53.0,30.03,ESE,102,0.0,0.0,93,0.00,,---,0.07,VWS V14.01,2013-05-09 02:22:00,
2013-05-08 22:27:00,54.8,52.8,30.03,ESE,102,0.0,0.0,93,0.00,,---,0.07,VWS V14.01,2013-05-09 02:27:00,
2013-05-08 22:32:00,54.6,52.9,30.03,East,101,0.0,0.0,94,0.00,,---,0.07,VWS V14.01,2013-05-09 02:32:00,
2013-05-08 22:37:00,54.5,52.8,30.03,ESE,102,0.0,0.0,94,0.00,,---,0.07,VWS V14.01,2013-05-09 02:37:00,
2013-05-08 22:42:00,54.3,52.6,30.03,ESE,102,0.0,0.0,94,0.00,,---,0.07,VWS V14.01,2013-05-09 02:42:00,
2013-05-08 22:47:00,54.1,52.4,30.03,ESE,102,0.0,0.0,94,0.00,,---,0.07,VWS V14.01,2013-05-09 02:47:00,
2013-05-08 22:52:00,54.0,52.3,30.03,ESE,102,0.0,0.0,94,0.00,,---,0.07,VWS V14.01,2013-05-09 02:52:00,
2013-05-08 22:57:00,53.8,52.1,30.03,ESE,102,0.0,0.0,94,0.00,,---,0.07,VWS V14.01,2013-05-09 02:57:00,
2013-05-08 23:02:00,53.8,52.4,30.03,East,101,0.0,0.0,95,0.00,,---,0.07,VWS V14.01,2013-05-09 03:02:00,
2013-05-08 23:07:00,53.7,52.3,30.03,ESE,102,0.0,0.0,95,0.00,,---,0.07,VWS V14.01,2013-05-09 03:07:00,
2013-05-08 23:12:00,53.6,52.2,30.03,ESE,102,0.0,0.0,95,0.00,,---,0.07,VWS V14.01,2013-05-09 03:12:00,
2013-05-08 23:17:00,53.4,52.0,30.03,ESE,102,0.0,0.0,95,0.00,,---,0.07,VWS V14.01,2013-05-09 03:17:00,
2013-05-08 23:22:00,53.3,51.9,30.03,ESE,102,0.0,0.0,95,0.00,,---,0.07,VWS V14.01,2013-05-09 03:22:00,
2013-05-08 23:27:00,53.3,51.9,30.03,ESE,102,0.0,1.0,95,0.00,,---,0.07,VWS V14.01,2013-05-09 03:27:00,
2013-05-08 23:32:00,53.3,51.9,30.03,ESE,102,0.0,0.0,95,0.00,,---,0.07,VWS V14.01,2013-05-09 03:32:00,
2013-05-08 23:37:00,53.2,51.8,30.02,East,101,0.0,0.0,95,0.00,,---,0.07,VWS V14.01,2013-05-09 03:37:00,
2013-05-08 23:42:00,53.1,51.7,30.02,East,101,0.0,0.0,95,0.00,,---,0.07,VWS V14.01,2013-05-09 03:42:00,
2013-05-08 23:47:00,53.1,51.7,30.02,East,101,0.0,0.0,95,0.00,,---,0.07,VWS V14.01,2013-05-09 03:47:00,
2013-05-08 23:52:00,53.1,51.7,30.02,ESE,102,0.0,0.0,95,0.00,,---,0.07,VWS V14.01,2013-05-09 03:52:00,
2013-05-08 23:57:00,53.0,51.6,30.02,NNE,15,0.0,0.0,95,0.00,,---,0.07,VWS V14.01,2013-05-09 03:57:00,